Find Gonets-D1 No. 15L

NORAD ID: 23789 Int'l Des: 1996-009 Owner: GONETS Country: RU operational
LEOCIRCULARPOLAR

Live Position

Loading 3D Globe...

About Gonets-D1 No. 15L

Description loading...

Upcoming Passes

Passes for default location (London). Set your location on the main map for personalized predictions.

Altitude History

Loading altitude history...

Two-Line Element Set

1 23789U 96009C 26104.42789617 .00000022 00000-0 65425-4 0 9990
2 23789 82.5838 0.5620 0004652 200.1311 159.9597 12.62683916389608
Epoch: Apr 14, 2026 • Age: 16 hours

Current Status

Altitude 1419.9 km
Velocity 7.16 km/s
Sub-Earth Point 54.90°N, 65.84°W
Launch Date Feb 19, 1996
Age 30.1 years
Type other

Technical Details

Classification Payload
Mass 225.00 kg
Dry Mass 225.00 kg
Total Mass 225.00 kg
Length 1.60 m
Diameter 0.80 m
Span 7.00 m
Shape Cyl + Ant
Manufacturer NPOPMR
Bus Type Strela-3
Phase Status In Orbit
Owner/State GONETS/RU

Most Searched